Time,TemperatureF,DewpointF,PressureIn,WindDirection,WindDirectionDegrees,WindSpeedMPH,WindSpeedGustMPH,Humidity,HourlyPrecipIn,Conditions,Clouds,dailyrainin,SoftwareType,DateUTC
2013-04-21 00:01:00,39.0,37.0,30.00,North,5,6.0,11.0,92,0.02,,,0.07,,2013-04-21 06:01:00,
2013-04-21 00:12:00,39.0,37.0,30.00,North,5,6.0,11.0,92,0.02,,,0.07,,2013-04-21 06:12:00,
2013-04-21 00:21:00,38.0,36.0,29.99,NW,315,1.0,8.0,91,0.02,,,0.08,,2013-04-21 06:21:00,
2013-04-21 00:32:00,38.0,36.0,29.99,NW,315,1.0,8.0,91,0.02,,,0.08,,2013-04-21 06:32:00,
2013-04-21 00:42:00,38.0,36.0,29.99,NW,315,1.0,8.0,91,0.02,,,0.08,,2013-04-21 06:42:00,
2013-04-21 00:51:00,37.0,35.0,29.99,SE,136,0.0,3.0,92,0.02,,,0.09,,2013-04-21 06:51:00,
2013-04-21 01:01:00,37.0,35.0,30.00,ENE,63,1.0,4.0,93,0.03,,,0.10,,2013-04-21 07:01:00,
2013-04-21 01:11:00,37.0,35.0,30.01,NE,37,9.0,14.0,94,0.03,,,0.11,,2013-04-21 07:11:00,
2013-04-21 01:21:00,37.0,35.0,30.01,NE,37,9.0,14.0,94,0.03,,,0.11,,2013-04-21 07:21:00,
2013-04-21 01:31:00,36.0,34.0,30.02,NE,41,7.0,14.0,92,0.02,,,0.10,,2013-04-21 07:31:00,
2013-04-21 01:41:00,36.0,34.0,30.02,NE,41,7.0,14.0,92,0.02,,,0.10,,2013-04-21 07:41:00,
2013-04-21 01:52:00,35.0,33.0,30.03,NE,38,10.0,18.0,92,0.03,,,0.11,,2013-04-21 07:52:00,
2013-04-21 02:01:00,34.0,32.0,30.03,NE,42,12.0,19.0,91,0.02,,,0.11,,2013-04-21 08:01:00,
2013-04-21 02:11:00,34.0,32.0,30.03,NE,42,12.0,19.0,91,0.02,,,0.11,,2013-04-21 08:11:00,
2013-04-21 02:21:00,33.0,31.0,30.04,NE,54,10.0,19.0,92,0.02,,,0.12,,2013-04-21 08:21:00,
2013-04-21 02:32:00,33.0,31.0,30.04,ENE,67,8.0,20.0,92,0.02,,,0.12,,2013-04-21 08:32:00,
2013-04-21 02:41:00,33.0,31.0,30.04,ENE,67,8.0,20.0,92,0.02,,,0.12,,2013-04-21 08:41:00,
2013-04-21 02:52:00,33.0,30.0,30.05,NE,40,12.0,22.0,89,0.02,,,0.13,,2013-04-21 08:52:00,
2013-04-21 03:01:00,33.0,30.0,30.05,NNE,15,9.0,19.0,88,0.02,,,0.13,,2013-04-21 09:01:00,
2013-04-21 03:11:00,33.0,30.0,30.05,NNE,15,9.0,19.0,88,0.02,,,0.13,,2013-04-21 09:11:00,
2013-04-21 03:21:00,33.0,30.0,30.06,NNE,15,12.0,21.0,88,0.02,,,0.14,,2013-04-21 09:21:00,
2013-04-21 03:32:00,32.0,29.0,30.07,NNE,15,8.0,18.0,89,0.02,,,0.14,,2013-04-21 09:32:00,
2013-04-21 03:42:00,32.0,29.0,30.07,NNE,15,8.0,18.0,89,0.02,,,0.14,,2013-04-21 09:42:00,
2013-04-21 03:52:00,32.0,30.0,30.07,NNE,15,7.0,18.0,91,0.02,,,0.15,,2013-04-21 09:52:00,
2013-04-21 04:02:00,31.0,29.0,30.08,NNE,15,5.0,12.0,92,0.02,,,0.15,,2013-04-21 10:02:00,
2013-04-21 04:12:00,31.0,29.0,30.08,NNE,15,5.0,12.0,92,0.02,,,0.15,,2013-04-21 10:12:00,
2013-04-21 04:22:00,31.0,29.0,30.08,NNE,15,4.0,14.0,93,0.02,,,0.16,,2013-04-21 10:22:00,
2013-04-21 04:32:00,31.0,29.0,30.10,NNE,15,6.0,12.0,94,0.02,,,0.16,,2013-04-21 10:32:00,
2013-04-21 04:42:00,31.0,29.0,30.10,NNE,15,6.0,12.0,94,0.02,,,0.16,,2013-04-21 10:42:00,
2013-04-21 04:52:00,31.0,29.0,30.10,NNE,15,8.0,12.0,94,0.01,,,0.16,,2013-04-21 10:52:00,
2013-04-21 05:02:00,31.0,29.0,30.10,NNE,15,3.0,10.0,94,0.02,,,0.17,,2013-04-21 11:02:00,
2013-04-21 05:11:00,31.0,29.0,30.10,NNE,15,3.0,10.0,94,0.02,,,0.17,,2013-04-21 11:11:00,
2013-04-21 05:22:00,31.0,30.0,30.10,NNE,15,5.0,13.0,95,0.01,,,0.17,,2013-04-21 11:22:00,
2013-04-21 05:33:00,30.0,29.0,30.11,NNE,15,3.0,10.0,95,0.02,,,0.17,,2013-04-21 11:33:00,
2013-04-21 05:42:00,30.0,29.0,30.11,NNE,15,3.0,10.0,95,0.02,,,0.17,,2013-04-21 11:42:00,
2013-04-21 05:51:00,30.0,28.0,30.11,NNE,15,5.0,10.0,94,0.02,,,0.17,,2013-04-21 11:51:00,
2013-04-21 06:02:00,30.0,28.0,30.11,NNE,15,6.0,12.0,94,0.01,,,0.17,,2013-04-21 12:02:00,
2013-04-21 06:12:00,30.0,28.0,30.11,NNE,15,6.0,12.0,94,0.01,,,0.17,,2013-04-21 12:12:00,
2013-04-21 06:22:00,30.0,28.0,30.11,NNE,15,4.0,12.0,94,0.01,,,0.17,,2013-04-21 12:22:00,
2013-04-21 06:31:00,30.0,28.0,30.11,NNE,15,5.0,11.0,93,0.01,,,0.18,,2013-04-21 12:31:00,
2013-04-21 06:42:00,30.0,28.0,30.11,NNE,15,5.0,11.0,93,0.01,,,0.18,,2013-04-21 12:42:00,
2013-04-21 06:52:00,30.0,28.0,30.11,NNE,15,5.0,9.0,93,0.01,,,0.18,,2013-04-21 12:52:00,
2013-04-21 07:01:00,30.0,28.0,30.12,NNE,15,5.0,12.0,92,0.01,,,0.18,,2013-04-21 13:01:00,
2013-04-21 07:11:00,30.0,28.0,30.12,NNE,15,5.0,12.0,92,0.01,,,0.18,,2013-04-21 13:11:00,
2013-04-21 07:21:00,30.0,28.0,30.12,NNE,15,3.0,10.0,92,0.01,,,0.18,,2013-04-21 13:21:00,
2013-04-21 07:32:00,29.0,27.0,30.12,NNE,15,4.0,13.0,92,0.01,,,0.19,,2013-04-21 13:32:00,
2013-04-21 07:42:00,29.0,27.0,30.12,NNE,15,4.0,13.0,92,0.01,,,0.19,,2013-04-21 13:42:00,
2013-04-21 07:52:00,29.0,27.0,30.13,NNE,15,4.0,14.0,93,0.01,,,0.19,,2013-04-21 13:52:00,
2013-04-21 08:01:00,29.0,27.0,30.14,NNE,15,5.0,10.0,93,0.01,,,0.19,,2013-04-21 14:01:00,
2013-04-21 08:11:00,29.0,27.0,30.14,NNE,15,5.0,10.0,93,0.01,,,0.19,,2013-04-21 14:11:00,
2013-04-21 08:21:00,29.0,27.0,30.14,NNE,15,6.0,13.0,93,0.01,,,0.19,,2013-04-21 14:21:00,
2013-04-21 08:31:00,29.0,27.0,30.14,NNE,15,7.0,14.0,93,0.00,,,0.19,,2013-04-21 14:31:00,
2013-04-21 08:42:00,29.0,27.0,30.14,NNE,15,7.0,14.0,93,0.00,,,0.19,,2013-04-21 14:42:00,
2013-04-21 08:52:00,29.0,27.0,30.15,NNE,15,9.0,15.0,93,0.01,,,0.20,,2013-04-21 14:52:00,
2013-04-21 09:01:00,28.0,26.0,30.15,NNE,15,9.0,16.0,93,0.01,,,0.20,,2013-04-21 15:01:00,
2013-04-21 09:11:00,28.0,26.0,30.15,NNE,15,9.0,16.0,93,0.01,,,0.20,,2013-04-21 15:11:00,
2013-04-21 09:22:00,28.0,26.0,30.15,NNE,15,10.0,15.0,93,0.01,,,0.20,,2013-04-21 15:22:00,
2013-04-21 09:33:00,28.0,26.0,30.16,NNE,15,10.0,15.0,93,0.01,,,0.20,,2013-04-21 15:33:00,
2013-04-21 09:42:00,28.0,26.0,30.16,NNE,15,10.0,15.0,93,0.01,,,0.20,,2013-04-21 15:42:00,
2013-04-21 09:53:00,27.0,25.0,30.16,NNE,15,9.0,17.0,93,0.00,,,0.20,,2013-04-21 15:53:00,
2013-04-21 10:03:00,28.0,26.0,30.16,NNE,15,7.0,16.0,93,0.00,,,0.20,,2013-04-21 16:03:00,
2013-04-21 10:12:00,28.0,26.0,30.16,NNE,15,7.0,16.0,93,0.00,,,0.20,,2013-04-21 16:12:00,
2013-04-21 10:22:00,28.0,26.0,30.16,NNE,15,9.0,15.0,93,0.00,,,0.20,,2013-04-21 16:22:00,
2013-04-21 10:32:00,28.0,26.0,30.16,NNE,15,9.0,16.0,93,0.00,,,0.20,,2013-04-21 16:32:00,
2013-04-21 10:42:00,28.0,26.0,30.16,NNE,15,9.0,16.0,93,0.00,,,0.20,,2013-04-21 16:42:00,
2013-04-21 10:52:00,28.0,26.0,30.16,NNE,15,10.0,17.0,92,0.00,,,0.20,,2013-04-21 16:52:00,
2013-04-21 11:01:00,29.0,27.0,30.17,NNE,15,9.0,14.0,91,0.00,,,0.20,,2013-04-21 17:01:00,
2013-04-21 11:12:00,29.0,27.0,30.17,NNE,15,9.0,14.0,91,0.00,,,0.20,,2013-04-21 17:12:00,
2013-04-21 11:22:00,30.0,27.0,30.16,NNE,15,8.0,15.0,89,0.00,,,0.20,,2013-04-21 17:22:00,
2013-04-21 11:32:00,31.0,28.0,30.17,NE,34,7.0,13.0,87,0.00,,,0.20,,2013-04-21 17:32:00,
2013-04-21 11:41:00,31.0,28.0,30.17,NE,34,7.0,13.0,87,0.00,,,0.20,,2013-04-21 17:41:00,
2013-04-21 11:52:00,31.0,27.0,30.17,NNE,25,7.0,14.0,84,0.01,,,0.21,,2013-04-21 17:52:00,
2013-04-21 12:02:00,31.0,26.0,30.17,NNE,17,6.0,14.0,83,0.01,,,0.21,,2013-04-21 18:02:00,
2013-04-21 12:11:00,31.0,26.0,30.17,NNE,17,6.0,14.0,83,0.01,,,0.21,,2013-04-21 18:11:00,
2013-04-21 12:21:00,32.0,27.0,30.18,NE,51,7.0,16.0,83,0.01,,,0.21,,2013-04-21 18:21:00,
2013-04-21 12:32:00,32.0,27.0,30.18,NNE,12,7.0,15.0,80,0.02,,,0.22,,2013-04-21 18:32:00,
2013-04-21 12:42:00,32.0,27.0,30.18,NNE,12,7.0,15.0,80,0.02,,,0.22,,2013-04-21 18:42:00,
2013-04-21 12:52:00,32.0,27.0,30.19,NE,39,10.0,15.0,81,0.01,,,0.22,,2013-04-21 18:52:00,
2013-04-21 13:02:00,32.0,27.0,30.19,North,10,8.0,15.0,82,0.02,,,0.23,,2013-04-21 19:02:00,
2013-04-21 13:11:00,32.0,27.0,30.19,North,10,8.0,15.0,82,0.02,,,0.23,,2013-04-21 19:11:00,
2013-04-21 13:21:00,33.0,28.0,30.18,NNE,31,9.0,16.0,81,0.02,,,0.23,,2013-04-21 19:21:00,
2013-04-21 13:32:00,33.0,28.0,30.19,NE,34,6.0,15.0,80,0.02,,,0.24,,2013-04-21 19:32:00,
2013-04-21 13:42:00,33.0,28.0,30.19,NE,34,6.0,15.0,80,0.02,,,0.24,,2013-04-21 19:42:00,
2013-04-21 13:52:00,33.0,27.0,30.19,NNE,28,9.0,16.0,79,0.02,,,0.24,,2013-04-21 19:52:00,
2013-04-21 14:01:00,33.0,28.0,30.19,NE,49,10.0,18.0,80,0.02,,,0.25,,2013-04-21 20:01:00,
2013-04-21 14:11:00,33.0,28.0,30.19,NE,49,10.0,18.0,80,0.02,,,0.25,,2013-04-21 20:11:00,
2013-04-21 14:22:00,32.0,27.0,30.19,NE,47,6.0,18.0,82,0.02,,,0.25,,2013-04-21 20:22:00,
2013-04-21 14:31:00,32.0,27.0,30.20,North,11,9.0,18.0,81,0.01,,,0.25,,2013-04-21 20:31:00,
2013-04-21 14:41:00,32.0,27.0,30.20,North,11,9.0,18.0,81,0.01,,,0.25,,2013-04-21 20:41:00,
2013-04-21 14:51:00,32.0,27.0,30.20,NNE,17,9.0,18.0,81,0.02,,,0.26,,2013-04-21 20:51:00,
2013-04-21 15:02:00,33.0,27.0,30.20,North,360,7.0,15.0,79,0.01,,,0.26,,2013-04-21 21:02:00,
2013-04-21 15:12:00,33.0,27.0,30.20,North,360,7.0,15.0,79,0.01,,,0.26,,2013-04-21 21:12:00,
2013-04-21 15:21:00,33.0,27.0,30.20,NE,39,9.0,14.0,77,0.02,,,0.27,,2013-04-21 21:21:00,
2013-04-21 15:33:00,33.0,26.0,30.21,NNE,28,6.0,15.0,76,0.02,,,0.27,,2013-04-21 21:33:00,
2013-04-21 15:43:00,33.0,26.0,30.21,NNE,28,6.0,15.0,76,0.02,,,0.27,,2013-04-21 21:43:00,
2013-04-21 15:53:00,33.0,26.0,30.21,NNE,15,6.0,14.0,74,0.01,,,0.27,,2013-04-21 21:53:00,
2013-04-21 16:02:00,33.0,25.0,30.21,NE,42,6.0,14.0,73,0.01,,,0.27,,2013-04-21 22:02:00,
2013-04-21 16:12:00,33.0,25.0,30.21,NE,42,6.0,14.0,73,0.01,,,0.27,,2013-04-21 22:12:00,
2013-04-21 16:22:00,33.0,25.0,30.21,NNE,20,6.0,15.0,72,0.01,,,0.28,,2013-04-21 22:22:00,
2013-04-21 16:32:00,34.0,25.0,30.22,North,5,10.0,16.0,69,0.01,,,0.28,,2013-04-21 22:32:00,
2013-04-21 16:42:00,34.0,25.0,30.22,North,5,10.0,16.0,69,0.01,,,0.28,,2013-04-21 22:42:00,
2013-04-21 16:52:00,34.0,24.0,30.21,NNE,30,11.0,17.0,67,0.02,,,0.28,,2013-04-21 22:52:00,
2013-04-21 17:02:00,34.0,24.0,30.21,NNE,24,10.0,15.0,66,0.02,,,0.28,,2013-04-21 23:02:00,
2013-04-21 17:12:00,34.0,24.0,30.21,NNE,24,10.0,15.0,66,0.02,,,0.28,,2013-04-21 23:12:00,
2013-04-21 17:22:00,34.0,24.0,30.22,North,5,7.0,13.0,67,0.01,,,0.28,,2013-04-21 23:22:00,
2013-04-21 17:32:00,34.0,23.0,30.22,NE,50,7.0,13.0,64,0.01,,,0.28,,2013-04-21 23:32:00,
2013-04-21 17:42:00,34.0,23.0,30.22,NE,50,7.0,13.0,64,0.01,,,0.28,,2013-04-21 23:42:00,
2013-04-21 17:52:00,34.0,22.0,30.23,North,11,7.0,17.0,61,0.01,,,0.30,,2013-04-21 23:52:00,
2013-04-21 18:01:00,34.0,22.0,30.24,North,11,5.0,12.0,62,0.01,,,0.30,,2013-04-22 00:01:00,
2013-04-21 18:11:00,34.0,22.0,30.24,North,11,5.0,12.0,62,0.01,,,0.30,,2013-04-22 00:11:00,
2013-04-21 18:21:00,34.0,22.0,30.24,NE,38,7.0,10.0,62,0.01,,,0.30,,2013-04-22 00:21:00,
2013-04-21 18:31:00,34.0,22.0,30.24,NNE,18,6.0,12.0,62,0.02,,,0.31,,2013-04-22 00:31:00,
2013-04-21 18:42:00,34.0,22.0,30.24,NNE,18,6.0,12.0,62,0.02,,,0.31,,2013-04-22 00:42:00,
2013-04-21 18:51:00,34.0,21.0,30.24,NNE,25,5.0,12.0,59,0.01,,,0.31,,2013-04-22 00:51:00,
2013-04-21 19:01:00,34.0,22.0,30.26,NNE,19,5.0,8.0,61,0.01,,,0.31,,2013-04-22 01:01:00,
2013-04-21 19:11:00,34.0,22.0,30.26,NNE,19,5.0,8.0,61,0.01,,,0.31,,2013-04-22 01:11:00,
2013-04-21 19:21:00,34.0,22.0,30.26,NE,42,6.0,11.0,61,0.01,,,0.30,,2013-04-22 01:21:00,
2013-04-21 19:32:00,34.0,22.0,30.27,NE,49,6.0,10.0,61,0.01,,,0.31,,2013-04-22 01:32:00,
2013-04-21 19:41:00,34.0,22.0,30.27,NE,49,6.0,10.0,61,0.01,,,0.31,,2013-04-22 01:41:00,
2013-04-21 19:51:00,33.0,20.0,30.27,NNE,27,4.0,14.0,58,0.01,,,0.31,,2013-04-22 01:51:00,
2013-04-21 20:01:00,32.0,20.0,30.29,NE,48,4.0,7.0,61,0.01,,,0.31,,2013-04-22 02:01:00,
2013-04-21 20:11:00,32.0,20.0,30.29,NE,48,4.0,7.0,61,0.01,,,0.31,,2013-04-22 02:11:00,
2013-04-21 20:21:00,32.0,20.0,30.30,NE,34,5.0,12.0,60,0.01,,,0.31,,2013-04-22 02:21:00,
2013-04-21 20:31:00,31.0,19.0,30.30,NNE,25,5.0,11.0,60,0.01,,,0.32,,2013-04-22 02:31:00,
2013-04-21 20:41:00,31.0,19.0,30.30,NNE,25,5.0,11.0,60,0.01,,,0.32,,2013-04-22 02:41:00,
2013-04-21 20:52:00,31.0,20.0,30.31,NE,42,5.0,10.0,64,0.01,,,0.32,,2013-04-22 02:52:00,
2013-04-21 21:01:00,31.0,19.0,30.32,NNE,31,2.0,11.0,61,0.01,,,0.32,,2013-04-22 03:01:00,
2013-04-21 21:11:00,31.0,19.0,30.32,NNE,31,2.0,11.0,61,0.01,,,0.32,,2013-04-22 03:11:00,
2013-04-21 21:22:00,30.0,19.0,30.33,NNE,29,5.0,8.0,64,0.01,,,0.31,,2013-04-22 03:22:00,
2013-04-21 21:33:00,30.0,20.0,30.34,NNE,27,5.0,11.0,66,0.00,,,0.31,,2013-04-22 03:33:00,
2013-04-21 21:42:00,30.0,20.0,30.34,NNE,27,5.0,11.0,66,0.00,,,0.31,,2013-04-22 03:42:00,
2013-04-21 21:52:00,30.0,20.0,30.35,NE,38,4.0,9.0,66,0.00,,,0.31,,2013-04-22 03:52:00,
2013-04-21 22:02:00,29.0,18.0,30.35,NE,42,4.0,12.0,63,0.00,,,0.31,,2013-04-22 04:02:00,
2013-04-21 22:12:00,29.0,18.0,30.35,NE,42,4.0,12.0,63,0.00,,,0.31,,2013-04-22 04:12:00,
2013-04-21 22:23:00,29.0,18.0,30.36,NNE,13,4.0,9.0,63,0.00,,,0.31,,2013-04-22 04:23:00,
2013-04-21 22:32:00,29.0,18.0,30.37,NE,34,5.0,9.0,62,0.00,,,0.31,,2013-04-22 04:32:00,
2013-04-21 22:43:00,29.0,18.0,30.37,NE,34,5.0,9.0,62,0.00,,,0.31,,2013-04-22 04:43:00,
2013-04-21 22:52:00,29.0,18.0,30.37,NNE,32,5.0,12.0,63,0.00,,,0.31,,2013-04-22 04:52:00,
2013-04-21 23:02:00,28.0,17.0,30.37,NNE,22,5.0,9.0,63,0.00,,,0.31,,2013-04-22 05:02:00,
2013-04-21 23:11:00,28.0,17.0,30.37,NNE,22,5.0,9.0,63,0.00,,,0.31,,2013-04-22 05:11:00,
2013-04-21 23:22:00,28.0,16.0,30.37,North,9,6.0,11.0,59,0.00,,,0.28,,2013-04-22 05:22:00,
2013-04-21 23:32:00,28.0,16.0,30.38,NE,36,7.0,14.0,59,0.00,,,0.28,,2013-04-22 05:32:00,
2013-04-21 23:42:00,28.0,16.0,30.38,NE,36,7.0,14.0,59,0.00,,,0.28,,2013-04-22 05:42:00,
2013-04-21 23:52:00,28.0,15.0,30.39,NNE,24,8.0,13.0,58,0.00,,,0.28,,2013-04-22 05:52:00,